Date,TemperatureHighF,TemperatureAvgF,TemperatureLowF,DewpointHighF,DewpointAvgF,DewpointLowF,HumidityHigh,HumidityAvg,HumidityLow,PressureMaxIn,PressureMinIn,WindSpeedMaxMPH,WindSpeedAvgMPH,GustSpeedMaxMPH,PrecipitationSumIn
2013-1-1,53.9,39.5,27.8,34.0,28.7,23.0,93,69,32,30.35,30.19,7,1,10,0.01
2013-1-2,61.1,44.5,28.4,33.0,27.5,22.0,91,58,23,30.21,30.05,12,3,14,0.00
2013-1-3,59.7,45.6,33.1,31.0,28.9,25.0,83,56,31,30.24,30.07,19,7,29,0.00
2013-1-4,57.5,47.2,37.5,29.0,27.6,26.0,69,48,31,30.33,30.22,22,6,25,0.00
2013-1-5,62.5,44.4,28.7,32.0,26.1,18.0,89,55,18,30.41,30.28,7,2,8,0.00
2013-1-6,65.6,44.5,30.1,28.0,23.3,15.0,79,52,15,30.28,30.01,11,2,12,0.00
2013-1-7,57.7,43.0,29.3,31.0,28.3,26.0,86,60,32,30.02,29.88,12,3,15,0.00
2013-1-8,59.6,43.9,29.2,33.0,29.1,26.0,88,60,30,30.19,30.00,5,2,7,0.00
2013-1-9,71.0,49.7,29.8,30.0,21.8,11.0,84,44,10,30.30,30.10,16,4,24,0.00
2013-1-10,66.5,51.7,34.4,35.0,24.7,21.0,64,38,19,30.12,29.85,22,4,30,0.00
2013-1-11,54.1,40.7,30.8,37.0,25.5,12.0,93,59,26,30.12,29.91,21,4,29,0.04
2013-1-12,47.9,34.0,21.4,21.0,15.6,6.0,85,52,20,30.23,30.08,12,2,18,0.00
2013-1-13,48.5,33.1,19.9,19.0,13.0,4.0,82,50,17,30.25,30.12,10,2,13,0.00
2013-1-14,45.0,32.1,18.8,17.0,11.1,5.0,81,46,21,30.36,30.18,13,3,19,0.00
2013-1-15,46.2,31.5,16.6,13.0,7.2,0.0,76,41,15,30.50,30.35,7,2,10,0.00
2013-1-16,61.7,42.4,21.9,16.0,10.3,7.0,61,32,13,30.51,30.31,10,3,17,0.00
2013-1-17,67.9,53.3,32.2,18.0,15.6,13.0,52,26,13,30.32,30.18,19,7,25,0.00
2013-1-18,73.3,57.7,41.7,23.0,19.0,15.0,48,24,11,30.24,30.09,9,2,18,0.00
2013-1-19,76.0,52.5,31.5,27.0,23.3,18.0,67,37,12,30.28,30.14,7,2,9,0.00
2013-1-20,76.6,54.4,35.1,41.0,28.5,25.0,68,41,19,30.21,30.04,6,2,9,0.00
2013-1-21,79.6,58.1,38.0,36.0,31.8,29.0,72,42,19,30.14,30.01,9,2,13,0.00
2013-1-22,79.8,56.1,39.2,37.0,31.9,29.0,72,45,16,30.20,30.08,6,2,10,0.00
2013-1-23,81.5,58.8,39.3,33.0,31.4,29.0,69,40,17,30.24,30.11,6,1,8,0.00
2013-1-24,64.4,57.6,50.7,52.0,43.4,32.0,81,60,42,30.25,30.15,4,1,8,0.02
2013-1-25,76.9,63.0,48.0,50.0,47.5,45.0,89,61,32,30.21,29.98,5,1,8,0.00
2013-1-26,69.2,60.3,53.1,59.0,52.8,47.0,93,78,48,30.00,29.89,14,3,25,0.58
2013-1-27,66.8,57.9,47.9,54.0,49.5,47.0,96,76,50,30.04,29.94,7,2,12,0.00
2013-1-28,57.8,51.7,44.5,50.0,42.1,31.0,87,70,53,30.04,29.93,18,6,24,0.08
2013-1-29,52.0,44.7,36.8,36.0,28.4,20.0,81,56,30,30.27,30.05,18,6,22,0.00
2013-1-30,58.7,44.2,29.0,32.0,26.7,20.0,88,55,23,30.43,30.27,11,2,12,0.00
2013-1-31,62.8,45.4,31.7,37.0,31.1,27.0,85,61,28,30.35,30.17,7,2,10,0.00
2013-2-1,72.0,50.6,30.6,35.0,30.5,22.0,91,55,16,30.29,30.18,7,2,11,0.00
2013-2-2,75.7,54.2,34.0,39.0,32.4,24.0,87,52,15,30.31,30.15,7,2,8,0.00
2013-2-3,69.6,57.9,47.7,41.0,36.5,29.0,73,48,24,30.18,29.98,6,2,12,0.00
2013-2-4,70.4,56.0,43.9,41.0,39.8,38.0,83,58,32,30.07,29.95,7,2,11,0.00
2013-2-5,73.7,56.8,39.9,44.0,40.2,37.0,89,59,28,30.07,29.93,11,2,14,0.00
2013-2-6,70.9,56.0,42.0,45.0,39.2,36.0,85,57,29,30.07,29.93,11,3,17,0.00
2013-2-7,70.2,54.5,38.8,42.0,35.3,28.0,86,53,22,30.15,30.00,8,2,13,0.00
2013-2-8,68.8,54.9,40.2,36.0,28.1,17.0,76,42,14,30.00,29.81,12,4,20,0.00
2013-2-9,54.0,45.5,36.3,39.0,31.0,23.0,90,60,30,30.11,29.83,16,4,25,0.08
2013-2-10,57.5,43.3,28.2,30.0,26.0,19.0,90,57,23,30.13,30.01,8,2,13,0.00
2013-2-11,54.4,39.2,28.7,38.0,31.2,24.0,92,75,38,30.26,30.05,14,2,21,0.17
2013-2-12,52.2,42.2,31.4,37.0,32.7,29.0,94,72,42,30.37,30.26,9,2,10,0.01
2013-2-13,60.2,44.6,28.9,33.0,27.8,20.0,91,58,22,30.30,30.16,7,2,10,0.00
2013-2-14,65.4,48.1,30.3,33.0,29.0,24.0,88,54,22,30.23,30.09,7,2,11,0.00
2013-2-15,72.4,53.5,37.3,36.0,26.2,13.0,82,44,10,30.29,30.19,16,4,25,0.00
2013-2-16,74.2,61.6,43.1,24.0,14.8,8.0,46,18,8,30.30,30.01,27,8,30,0.00
2013-2-17,74.7,56.1,35.6,25.0,18.2,8.0,59,28,8,30.01,29.86,11,4,20,0.00
2013-2-18,71.5,53.8,35.1,28.0,21.9,12.0,65,34,11,30.09,29.95,7,2,9,0.00
2013-2-19,73.0,56.6,39.1,32.0,21.4,11.0,60,31,10,29.98,29.74,17,5,25,0.00
2013-2-20,52.7,42.5,33.7,39.0,34.1,31.0,94,74,46,30.03,29.71,17,4,29,0.19
2013-2-21,55.5,44.1,33.9,39.0,34.3,31.0,95,71,42,30.16,30.03,7,2,13,0.25
2013-2-22,56.9,46.2,36.8,39.0,34.2,28.0,92,66,39,30.22,30.06,14,3,17,0.00
2013-2-23,65.0,47.8,30.3,36.0,29.6,21.0,91,56,19,30.22,29.91,9,2,13,0.00
2013-2-24,51.8,43.7,34.4,34.0,22.1,7.0,88,49,17,30.17,29.86,21,6,30,0.00
2013-2-25,58.7,43.9,27.9,25.0,20.7,17.0,75,43,21,30.30,30.12,8,3,11,0.00
2013-2-26,64.0,46.7,28.8,28.0,22.8,17.0,84,46,18,30.15,30.02,15,3,21,0.00
2013-2-27,64.0,48.2,31.3,26.0,17.7,7.0,75,37,11,30.27,30.15,11,3,16,0.00
2013-2-28,67.7,49.3,28.8,25.0,18.8,12.0,73,36,12,30.38,30.26,10,3,17,0.00
2013-3-1,73.5,53.2,31.9,29.0,21.5,14.0,69,35,11,30.40,30.24,7,2,10,0.00
2013-3-2,82.6,59.2,36.2,32.0,26.5,9.0,75,37,6,30.35,30.12,6,2,9,0.00
2013-3-3,80.1,63.1,41.1,33.0,26.5,18.0,69,31,10,30.14,29.93,11,3,15,0.00
2013-3-4,73.1,63.5,50.4,33.0,30.3,20.0,52,30,17,30.07,29.87,24,5,26,0.00
2013-3-5,80.0,61.6,41.8,34.0,30.9,24.0,70,37,13,30.13,29.99,13,2,17,0.00
2013-3-6,80.6,65.0,51.0,38.0,32.9,27.0,57,34,15,30.03,29.87,10,2,14,0.00
2013-3-7,80.9,63.2,42.2,35.0,28.2,16.0,68,33,9,29.98,29.86,14,4,22,0.00
2013-3-8,69.4,58.6,44.3,46.0,38.0,30.0,71,48,30,29.99,29.75,26,8,35,0.01
2013-3-9,54.7,49.0,44.0,42.0,36.4,33.0,79,62,51,30.14,29.99,12,4,18,0.00
2013-3-10,67.3,53.9,40.0,40.0,34.1,27.0,83,52,24,30.21,30.09,9,3,20,0.00
2013-3-11,72.9,55.5,36.4,35.0,31.4,27.0,77,45,19,30.22,30.04,8,3,14,0.00
2013-3-12,81.9,60.5,38.2,39.0,32.6,26.0,73,41,13,30.13,30.00,9,2,12,0.00
2013-3-13,88.5,68.5,41.7,37.0,28.7,18.0,70,31,8,30.15,30.00,8,2,10,0.00
2013-3-14,91.1,69.0,44.8,34.0,25.0,6.0,60,27,4,30.12,29.96,9,2,16,0.00
2013-3-15,92.8,70.8,48.0,33.0,24.7,0.0,48,23,3,30.03,29.86,16,3,23,0.00
2013-3-16,89.0,69.7,46.6,32.0,22.8,3.0,55,23,4,29.91,29.70,19,4,23,0.00
2013-3-17,83.5,66.4,47.4,28.0,24.5,18.0,43,23,9,29.92,29.77,19,5,29,0.00
2013-3-18,82.2,66.4,47.9,35.0,26.6,17.0,48,26,9,30.00,29.89,11,3,18,0.00
2013-3-19,80.1,65.2,49.3,37.0,30.4,27.0,53,30,15,30.04,29.93,13,4,19,0.00
2013-3-20,81.9,66.9,47.4,36.0,30.8,27.0,57,29,14,30.05,29.86,11,3,15,0.00
2013-3-21,77.4,65.5,50.6,36.0,33.4,30.0,53,32,20,29.86,29.71,11,2,14,0.00
2013-3-22,80.9,69.0,51.4,36.0,32.6,27.0,51,28,16,29.79,29.65,15,5,23,0.00
2013-3-23,75.1,61.6,47.5,35.0,24.1,3.0,54,28,6,29.99,29.79,22,4,24,0.00
2013-3-24,76.6,59.0,37.9,23.0,10.9,-1.0,42,19,5,30.04,29.88,19,4,22,0.00
2013-3-25,80.5,62.6,40.1,23.0,17.3,12.0,42,20,8,30.03,29.90,11,3,15,0.00
2013-3-26,86.5,68.0,46.6,27.0,17.8,8.0,42,18,6,29.98,29.81,11,2,16,0.00
2013-3-27,86.1,68.4,46.9,27.0,21.9,14.0,43,20,8,29.99,29.86,15,4,22,0.00
2013-3-28,84.6,70.7,47.7,34.0,24.1,16.0,42,19,8,30.04,29.92,12,4,17,0.00
2013-3-29,86.2,71.1,51.9,36.0,24.2,14.0,36,19,8,30.06,29.95,11,3,18,0.00
2013-3-30,84.4,69.5,53.7,31.0,25.1,16.0,34,21,8,30.04,29.90,4,0,7,0.00
2013-3-31,85.7,68.0,47.2,33.0,28.4,23.0,49,26,11,30.03,29.87,0,0,0,0.00
2013-4-1,82.6,68.1,48.4,40.0,30.6,24.0,50,27,15,30.00,29.85,0,0,0,0.00
2013-4-2,78.2,63.6,45.0,28.0,23.6,16.0,47,24,10,29.95,29.85,0,0,0,0.00
2013-4-3,81.5,65.3,44.2,31.0,26.9,23.0,48,26,13,30.04,29.93,0,0,0,0.00
2013-4-4,88.8,69.8,48.2,33.0,24.8,10.0,54,24,6,30.07,29.88,0,0,0,0.00
2013-4-5,87.0,72.8,53.6,34.0,29.2,26.0,42,22,11,29.95,29.80,7,1,13,0.00
2013-4-6,84.5,71.6,53.2,37.0,31.0,28.0,40,24,13,29.95,29.78,10,3,16,0.00
2013-4-7,85.6,70.9,53.7,38.0,31.9,24.0,52,27,11,29.86,29.70,10,3,19,0.00
2013-4-8,83.2,69.4,48.1,43.0,35.2,27.0,82,31,15,29.73,29.36,24,10,42,0.03
2013-4-9,65.1,56.4,47.4,47.0,34.6,24.0,91,50,23,29.92,29.58,21,6,23,0.07
2013-4-10,68.5,57.4,40.0,35.0,30.4,25.0,76,40,20,30.02,29.92,14,4,22,0.00
2013-4-11,78.4,62.3,41.0,34.0,29.7,22.0,72,34,14,30.03,29.78,12,3,19,0.00
2013-4-12,81.6,64.8,48.9,35.0,28.4,20.0,50,28,11,29.82,29.72,13,2,19,0.00
2013-4-13,84.9,71.8,47.2,34.0,27.0,21.0,54,22,10,29.87,29.70,12,4,19,0.00
2013-4-14,84.8,70.7,53.5,38.0,31.6,25.0,42,26,11,29.79,29.64,20,5,23,0.00
2013-4-15,86.6,74.5,60.0,40.0,32.6,23.0,41,24,11,29.77,29.64,18,7,30,0.00
2013-4-16,86.0,73.0,54.2,40.0,33.2,25.0,52,26,12,29.78,29.65,17,7,28,0.00
2013-4-17,68.0,60.9,49.9,41.0,26.9,12.0,52,30,15,30.02,29.74,18,7,25,0.00
2013-4-18,71.3,55.6,38.9,22.0,14.8,9.0,42,22,9,30.16,30.02,17,3,20,0.00
2013-4-19,79.7,62.3,38.7,21.0,7.9,-4.0,47,16,4,30.18,29.95,13,4,23,0.00
2013-4-20,85.4,65.7,40.8,23.0,14.3,6.0,37,16,6,29.99,29.87,17,4,22,0.00
2013-4-21,89.0,70.1,45.6,28.0,19.3,12.0,41,18,6,30.04,29.89,10,3,14,0.00
2013-4-22,91.4,73.0,50.1,30.0,19.4,5.0,38,16,4,29.96,29.74,14,3,19,0.00
2013-4-23,88.6,72.3,50.9,26.0,21.4,14.0,35,17,7,29.86,29.74,16,4,21,0.00
2013-4-24,91.5,75.3,54.2,33.0,25.1,15.0,38,18,6,29.90,29.77,12,3,16,0.00
2013-4-25,85.6,73.6,60.7,36.0,27.7,13.0,38,20,7,29.99,29.82,20,6,37,0.00
2013-4-26,86.4,69.3,46.7,34.0,27.5,20.0,49,24,9,30.09,29.97,12,3,18,0.00
2013-4-27,90.5,72.9,48.9,34.0,25.1,10.0,48,20,5,30.06,29.85,10,3,16,0.00
2013-4-28,94.3,76.0,51.4,31.0,19.7,7.0,44,16,4,29.89,29.70,11,3,17,0.00
2013-4-29,96.7,77.3,52.3,29.0,18.0,3.0,37,14,3,29.81,29.61,11,3,20,0.00
2013-4-30,94.7,78.6,55.5,36.0,20.8,11.0,38,14,5,29.76,29.64,14,4,20,0.00
2013-5-1,89.8,75.2,55.4,34.0,22.1,9.0,33,16,5,29.95,29.76,14,4,17,0.00
2013-5-2,89.9,75.7,56.6,31.0,20.6,7.0,31,15,5,30.06,29.93,28,8,32,0.00
2013-5-3,86.0,73.3,61.5,23.0,18.1,11.0,22,13,6,30.02,29.76,29,11,35,0.00
2013-5-4,92.2,76.5,53.6,32.0,21.2,12.0,37,15,6,29.79,29.65,16,4,22,0.00
2013-5-5,91.1,78.0,60.8,41.0,29.7,17.0,37,18,7,29.88,29.70,16,5,28,0.00
2013-5-6,85.0,72.1,57.8,52.0,42.0,33.0,76,38,16,29.94,29.83,13,4,21,0.02
2013-5-7,84.6,70.1,53.0,45.0,35.9,20.0,52,32,12,29.97,29.82,18,5,23,0.00
2013-5-8,81.2,68.9,55.1,44.0,38.3,33.0,59,35,18,30.01,29.88,9,3,16,0.00
2013-5-9,83.3,71.4,54.6,44.0,35.1,21.0,57,30,10,29.97,29.84,12,3,17,0.00
2013-5-10,86.9,72.0,54.1,40.0,35.6,28.0,51,28,13,30.02,29.88,17,3,25,0.00
2013-5-11,86.3,75.2,58.6,40.0,36.2,30.0,44,26,14,30.09,29.96,20,8,27,0.00
2013-5-12,89.7,78.7,64.0,40.0,33.8,28.0,35,21,11,30.14,29.94,22,8,26,0.00
2013-5-13,93.3,80.0,61.4,35.0,27.7,18.0,33,17,7,30.07,29.89,20,5,24,0.00
2013-5-14,96.3,83.7,67.6,45.0,32.1,21.0,44,17,9,29.96,29.79,14,3,18,0.00
2013-5-15,97.3,81.8,64.8,41.0,34.0,29.0,36,19,9,29.98,29.79,16,4,24,0.00
2013-5-16,97.5,82.6,61.2,39.0,28.0,18.0,33,16,6,29.91,29.73,14,4,22,0.00
2013-5-17,94.9,79.9,57.9,39.0,27.4,15.0,40,17,6,29.89,29.76,15,4,22,0.00
2013-5-18,90.5,77.8,58.4,39.0,29.2,19.0,41,19,8,29.92,29.80,17,4,20,0.00
2013-5-19,90.3,77.6,59.2,44.0,37.1,26.0,50,26,10,29.92,29.76,13,4,21,0.00
2013-5-20,91.2,77.9,58.5,42.0,30.9,21.0,45,21,9,29.90,29.78,18,4,24,0.00
2013-5-21,93.8,77.8,54.4,33.0,19.9,7.0,32,14,4,29.91,29.75,9,3,15,0.00
2013-5-22,97.9,80.6,58.2,34.0,23.4,17.0,35,14,6,29.82,29.65,11,3,24,0.00
2013-5-23,94.5,75.1,61.0,39.0,29.4,16.0,33,21,6,29.82,29.76,9,2,14,0.00
2013-6-2,100.0,91.1,80.6,40.0,33.5,26.0,23,14,9,29.70,29.61,15,5,15,0.00
2013-6-3,101.9,87.4,63.4,43.0,29.8,12.0,40,16,4,29.80,29.68,14,4,21,0.00
2013-6-4,101.4,87.2,69.9,45.0,35.1,25.0,30,17,7,29.82,29.71,15,4,20,0.00
2013-6-5,99.7,84.4,63.2,41.0,26.5,10.0,39,16,4,29.86,29.72,15,3,19,0.00
2013-6-6,103.1,86.1,60.2,36.0,28.4,24.0,32,14,7,29.81,29.66,12,3,16,0.00
2013-6-7,105.8,88.5,65.0,42.0,28.8,20.0,35,14,5,29.78,29.59,11,3,16,0.00
2013-6-8,103.6,90.0,68.0,41.0,26.9,14.0,28,12,4,29.79,29.69,15,5,23,0.00
2013-6-9,102.4,88.1,68.7,46.0,27.9,5.0,37,15,3,29.86,29.73,15,4,20,0.00
2013-6-10,105.6,88.8,64.1,38.0,27.8,9.0,33,13,3,29.88,29.72,14,3,18,0.00
2013-6-11,106.5,89.9,67.1,37.0,24.9,-1.0,31,12,2,29.85,29.72,17,4,20,0.00
2013-6-12,106.8,91.0,68.3,39.0,31.0,26.0,32,13,6,29.90,29.73,18,5,22,0.00
2013-6-13,102.3,90.9,73.9,51.0,43.2,35.0,33,20,11,29.87,29.70,16,5,24,0.00
2013-6-14,102.0,90.5,77.1,55.0,49.5,42.0,43,26,15,29.83,29.65,15,4,21,0.00
2013-6-15,102.1,87.0,75.8,69.0,55.5,46.0,76,36,19,29.84,29.71,15,3,21,0.33
2013-6-16,103.1,87.5,68.7,65.0,50.2,32.0,80,35,10,29.90,29.75,11,3,19,0.00
2013-6-17,102.0,86.8,64.4,49.0,35.6,24.0,56,20,7,29.90,29.73,10,2,18,0.00
2013-6-18,104.9,87.0,64.3,45.0,3.5,-99.9,40,13,1,29.84,29.69,16,3,19,0.00
2013-6-19,104.6,86.4,63.0,34.0,23.0,6.0,33,12,3,29.77,29.64,13,4,31,0.00
2013-6-20,103.4,87.0,63.8,41.0,21.7,-3.0,38,13,2,29.80,29.69,13,3,20,0.00
2013-6-21,103.4,88.1,67.9,43.0,26.6,6.0,30,14,3,29.84,29.70,14,4,22,0.00
2013-6-22,102.5,87.0,66.1,39.0,26.4,7.0,33,14,3,29.84,29.68,15,4,21,0.00
2013-6-23,102.2,86.7,63.0,37.0,27.6,10.0,36,15,4,29.81,29.65,20,5,22,0.00
2013-6-24,101.7,86.9,64.9,42.0,29.3,14.0,31,15,5,29.83,29.71,16,5,26,0.00
2013-6-25,101.1,85.2,64.3,44.0,26.2,5.0,38,15,3,29.91,29.79,11,3,14,0.00
2013-6-26,101.5,85.7,62.0,35.0,23.9,6.0,32,13,3,30.00,29.86,12,4,17,0.00
2013-6-27,104.1,87.6,67.3,43.0,34.2,24.0,26,16,9,30.02,29.83,19,5,27,0.00
2013-6-28,108.7,91.6,68.8,43.0,36.8,30.0,34,16,7,29.90,29.73,9,2,15,0.00
2013-6-29,110.1,96.2,77.3,47.0,41.2,37.0,28,16,9,29.81,29.65,22,4,28,0.00
2013-6-30,108.8,94.0,79.6,63.0,50.3,43.0,55,25,11,29.89,29.58,21,6,34,0.03
2013-7-1,106.4,90.9,76.4,62.0,57.3,51.0,57,35,16,29.84,29.70,13,3,20,0.00
2013-7-2,101.2,89.0,73.4,64.0,57.1,53.0,73,36,22,30.00,29.75,22,6,46,0.02
2013-7-3,104.4,91.7,74.0,57.0,52.0,46.0,52,28,16,29.86,29.62,17,4,23,0.00
2013-7-4,103.7,93.8,82.6,59.0,54.0,48.0,43,27,17,29.78,29.61,16,4,22,0.00
2013-7-5,100.8,85.0,73.6,69.0,62.4,55.0,81,50,27,29.80,29.66,20,4,34,0.02
2013-7-6,103.5,86.0,70.6,66.0,61.0,53.0,76,48,19,29.82,29.63,11,2,15,0.00
2013-7-7,107.9,90.1,76.1,65.0,59.8,54.0,60,39,17,29.87,29.72,16,3,29,0.01
2013-7-8,104.4,92.9,82.1,62.0,57.7,54.0,47,32,19,29.94,29.82,15,4,22,0.00
2013-7-9,98.7,89.7,78.4,69.0,64.2,59.0,71,44,30,30.06,29.88,20,6,29,0.01
2013-7-10,98.5,83.9,73.9,73.0,66.9,63.0,83,59,32,30.05,29.90,10,2,20,0.01
2013-7-11,93.5,82.5,72.8,74.0,67.9,65.0,91,63,39,30.05,29.92,16,3,22,0.11
2013-7-12,92.2,82.3,72.3,71.0,65.7,61.0,89,59,35,30.05,29.89,16,4,22,0.45
2013-7-13,99.6,87.6,74.9,68.0,64.0,59.0,77,48,29,30.03,29.86,15,3,20,0.00
2013-7-14,101.9,91.1,79.4,65.0,61.2,57.0,59,38,25,29.97,29.79,17,4,21,0.00
2013-7-15,102.8,89.1,77.6,65.0,62.0,57.0,64,42,23,29.89,29.73,16,4,27,0.00
2013-7-16,88.1,80.5,76.3,67.0,64.9,62.0,70,60,45,30.09,29.90,22,6,28,0.01
2013-7-17,97.1,87.0,76.2,67.0,59.0,53.0,71,42,23,30.09,29.94,22,7,24,0.02
2013-7-18,95.4,86.1,79.0,62.0,57.5,54.0,52,39,26,30.04,29.87,18,10,25,0.00
2013-7-19,94.0,84.7,78.8,67.0,61.2,59.0,59,46,32,29.99,29.84,20,5,25,0.00
2013-7-20,94.5,80.6,74.3,69.0,66.5,63.0,83,64,38,29.96,29.80,19,3,31,0.01
2013-7-21,93.8,83.3,73.9,69.0,65.8,62.0,82,58,35,30.00,29.90,15,4,20,0.00
2013-7-22,96.7,84.8,73.6,68.0,64.3,60.0,80,53,31,30.05,29.93,16,4,23,0.00
2013-7-23,96.8,86.8,74.9,64.0,61.0,58.0,64,44,28,30.05,29.87,18,4,24,0.00
2013-7-24,94.0,84.4,76.4,73.0,64.4,61.0,87,53,35,29.98,29.88,15,3,20,0.04
2013-7-25,94.6,82.1,76.6,71.0,68.6,65.0,82,65,39,30.08,29.97,7,2,12,0.00
2013-7-26,98.0,81.2,72.8,73.0,68.2,62.0,88,67,32,30.16,30.06,20,2,31,0.30
2013-7-27,96.2,82.8,72.6,70.0,67.6,62.0,88,63,34,30.09,29.91,18,2,22,0.02
2013-7-28,100.7,87.7,72.4,69.0,59.8,49.0,85,45,20,29.95,29.82,12,3,17,0.00
2013-7-29,99.7,87.3,71.3,56.0,51.3,47.0,59,31,17,30.05,29.93,9,2,15,0.00
2013-7-30,103.9,90.0,73.1,58.0,54.3,51.0,56,32,17,30.14,29.99,13,4,19,0.00
2013-7-31,105.0,89.8,80.1,61.0,57.1,51.0,52,34,18,30.08,29.95,14,3,21,0.00
2013-8-1,93.7,87.1,81.2,62.0,59.9,57.0,52,40,31,30.02,29.93,26,3,26,0.00
2013-8-2,96.0,84.3,75.2,67.0,63.1,60.0,64,50,34,30.01,29.94,9,2,18,0.00
2013-8-3,101.1,88.0,71.4,63.0,58.9,53.0,74,41,21,30.06,29.91,11,3,16,0.00
2013-8-4,93.7,86.9,77.6,61.0,58.3,54.0,51,39,26,30.05,29.93,8,2,15,0.00
2013-8-5,94.9,80.5,71.1,68.0,60.1,55.0,89,53,26,30.10,29.92,17,5,25,0.11
2013-8-6,87.5,77.4,70.8,69.0,65.6,59.0,90,69,46,30.09,30.02,13,3,20,0.01
2013-8-7,95.0,82.1,68.0,66.0,58.6,49.0,86,50,21,30.12,29.97,15,3,25,0.00
2013-8-8,99.4,84.2,66.8,58.0,48.6,36.0,67,34,12,30.03,29.88,12,2,15,0.00
2013-8-9,103.1,86.6,64.5,48.0,43.7,38.0,49,25,12,29.99,29.87,11,3,18,0.00
2013-8-10,101.4,88.6,72.5,51.0,41.7,35.0,38,21,12,30.05,29.91,14,3,18,0.00
2013-8-11,100.6,86.4,72.8,61.0,54.0,37.0,52,34,21,30.02,29.86,14,4,21,0.00
2013-8-12,103.6,89.2,71.4,61.0,51.9,35.0,61,32,12,29.97,29.84,22,4,25,0.00
2013-8-13,103.6,88.1,69.7,50.0,40.2,36.0,39,20,11,30.03,29.87,14,3,18,0.00
2013-8-14,104.6,88.3,75.1,61.0,51.0,41.0,45,29,16,30.00,29.84,16,4,26,0.00
2013-8-15,104.1,90.0,75.4,61.0,55.8,49.0,56,34,17,30.01,29.86,16,2,23,0.00
2013-8-16,107.5,91.9,75.5,60.0,54.9,46.0,51,31,13,30.00,29.85,10,2,27,0.00
2013-8-17,108.0,92.4,75.1,61.0,55.2,48.0,57,32,14,30.00,29.81,14,3,18,0.00
2013-8-18,107.1,91.9,81.8,61.0,53.5,46.0,48,28,14,30.01,29.88,16,4,27,0.00
2013-8-19,104.0,90.9,78.1,59.0,54.2,45.0,49,31,14,30.00,29.85,12,2,15,0.00
2013-8-20,104.3,87.3,80.7,68.0,59.1,52.0,64,40,19,30.02,29.86,24,3,27,0.03
2013-8-21,95.9,84.5,74.8,64.0,59.0,55.0,67,44,26,30.02,29.90,15,3,20,0.00
2013-8-22,102.1,84.0,72.2,65.0,59.2,54.0,74,46,20,30.03,29.83,33,3,35,0.06
2013-8-23,99.9,83.4,68.2,65.0,60.3,53.0,85,51,21,30.00,29.82,13,3,21,0.00
2013-8-24,93.7,81.0,72.1,69.0,61.7,57.0,88,54,29,30.05,29.90,13,4,22,0.08
2013-8-25,93.3,78.3,72.6,72.0,68.8,63.0,92,75,37,30.06,29.97,11,2,24,0.20
2013-8-26,98.4,80.4,72.6,73.0,69.1,59.0,95,73,27,30.05,29.89,13,2,24,0.15
2013-8-27,99.0,85.0,67.9,71.0,60.6,51.0,95,52,20,29.96,29.83,11,3,17,0.01
2013-8-28,96.8,85.5,75.8,67.0,61.6,58.0,67,46,28,30.03,29.86,13,3,28,0.00
2013-8-29,88.8,80.0,74.7,70.0,67.0,64.0,83,65,46,30.14,30.03,10,2,15,0.00
2013-8-30,90.2,81.1,73.3,71.0,67.4,60.0,93,66,38,30.14,30.02,6,1,10,0.03
2013-8-31,97.9,84.8,70.6,67.0,64.1,59.0,83,53,34,30.07,29.89,16,3,23,0.00
2013-9-1,100.2,86.7,71.1,66.0,61.3,55.0,74,45,27,29.99,29.84,17,4,20,0.00
2013-9-2,96.5,84.9,76.2,65.0,61.0,55.0,61,46,25,30.04,29.84,15,3,20,0.00
2013-9-3,103.9,82.9,72.2,66.0,61.5,56.0,71,51,21,30.01,29.90,14,3,22,0.05
2013-9-4,100.7,85.3,67.7,65.0,56.6,48.0,84,44,18,30.04,29.91,18,3,20,0.00
2013-9-5,102.3,88.6,69.3,59.0,51.7,46.0,61,31,15,30.00,29.89,15,4,21,0.00
2013-9-6,100.9,84.2,71.7,66.0,57.2,51.0,75,42,20,30.03,29.86,11,2,37,0.47
2013-9-7,85.7,78.8,72.5,68.0,63.5,60.0,80,60,43,30.06,29.93,12,2,16,0.01
2013-9-8,85.7,76.5,70.8,70.0,65.8,63.0,90,70,49,29.98,29.87,10,2,15,0.07
2013-9-9,82.7,74.6,69.3,71.0,67.3,65.0,93,79,56,29.95,29.83,10,2,20,0.41
2013-9-10,86.7,75.2,64.8,66.0,62.8,57.0,95,68,40,30.03,29.91,11,3,18,0.37
2013-9-11,90.9,77.7,64.5,65.0,59.4,52.0,93,58,27,30.09,29.94,10,2,19,0.00
2013-9-12,94.9,81.1,65.7,62.0,59.1,51.0,85,51,27,29.99,29.82,20,4,23,0.00
2013-9-13,97.4,85.0,71.8,66.0,59.3,47.0,74,45,19,29.88,29.69,14,2,16,0.00
2013-9-14,98.9,85.2,71.9,65.0,58.6,49.0,74,44,20,29.81,29.70,8,2,11,0.00
2013-9-15,98.3,87.3,74.0,60.0,56.2,50.0,60,37,20,29.86,29.77,16,4,20,0.00
2013-9-16,98.5,89.3,81.9,60.0,58.2,54.0,45,36,23,29.90,29.78,19,8,26,0.00
2013-9-17,99.6,89.5,78.5,61.0,57.1,48.0,52,35,18,29.87,29.70,14,4,27,0.00
2013-9-18,99.6,86.9,72.1,60.0,48.8,41.0,62,30,14,29.84,29.70,10,2,19,0.00
2013-9-19,98.1,84.0,66.8,53.0,48.5,43.0,59,32,17,29.87,29.74,12,2,15,0.00
2013-9-20,99.0,83.2,65.9,56.0,51.3,44.0,59,35,20,29.93,29.80,17,3,22,0.00
2013-9-21,97.7,84.5,69.3,60.0,55.0,49.0,63,39,20,29.94,29.73,8,2,20,0.00
2013-9-22,93.8,82.9,69.0,64.0,53.9,40.0,60,39,23,29.84,29.68,22,5,29,0.00
2013-9-23,89.2,75.1,57.2,45.0,40.1,35.0,56,31,15,30.02,29.84,8,2,11,0.00
2013-9-24,95.4,78.2,55.6,44.0,37.1,27.0,56,27,11,30.09,29.89,9,2,12,0.00
2013-9-25,95.4,78.0,59.3,44.0,31.9,24.0,45,22,9,29.95,29.76,16,4,22,0.00
2013-9-26,93.1,77.3,55.4,54.0,40.1,28.0,49,29,16,29.87,29.74,20,6,24,0.00
2013-9-27,80.3,72.2,59.4,58.0,45.8,29.0,62,41,23,30.07,29.84,15,6,19,0.00
2013-9-28,87.2,70.8,50.7,42.0,37.5,30.0,56,32,18,30.19,30.06,10,2,21,0.00
2013-9-29,89.9,73.8,55.1,44.0,39.9,37.0,58,32,16,30.20,30.05,8,2,12,0.00
2013-9-30,91.1,72.9,54.6,43.0,35.2,27.0,57,29,10,30.11,29.96,10,2,15,0.00
2013-10-1,90.9,72.8,52.4,39.0,34.5,30.0,50,28,12,30.10,29.96,8,2,13,0.00
2013-10-2,89.3,73.8,55.7,47.0,41.7,37.0,60,34,16,30.08,29.92,11,2,15,0.00
2013-10-3,91.8,75.7,59.2,54.0,42.0,25.0,55,33,11,29.99,29.82,14,3,24,0.00
2013-10-4,85.2,72.4,56.4,47.0,41.0,30.0,60,34,19,30.09,29.93,15,4,17,0.00
2013-10-5,82.7,67.1,49.9,34.0,23.1,12.0,48,22,8,30.23,30.10,16,3,20,0.06
2013-10-6,88.2,71.0,46.8,26.0,21.2,16.0,43,18,8,30.25,30.12,17,6,24,0.00
2013-10-7,93.5,75.0,55.5,35.0,28.9,23.0,31,20,11,30.14,29.97,11,2,13,0.00
2013-10-8,89.5,72.9,54.5,37.0,32.5,29.0,45,25,14,30.02,29.87,14,3,20,0.00
2013-10-9,87.8,72.6,53.2,46.0,37.3,30.0,45,29,15,29.92,29.79,18,6,28,0.00
2013-10-10,71.8,64.2,53.9,51.0,45.2,40.0,65,51,35,30.07,29.84,18,6,24,0.00
2013-10-11,76.5,62.2,45.3,45.0,40.4,36.0,80,48,24,30.16,30.04,8,2,13,0.00
2013-10-12,84.5,65.9,44.6,41.0,36.5,33.0,69,38,16,30.12,29.98,8,2,15,0.00
2013-10-13,88.3,71.1,51.2,46.0,39.3,35.0,59,34,16,30.12,29.98,16,4,25,0.00
2013-10-14,81.9,67.6,50.8,46.0,38.9,34.0,68,38,21,30.15,30.02,12,2,14,0.00
2013-10-15,82.5,66.8,49.1,44.0,34.3,28.0,59,33,17,30.09,29.97,16,3,17,0.00
2013-10-16,78.8,62.0,44.3,32.0,22.9,14.0,53,26,9,30.21,30.09,9,2,15,0.00
2013-10-17,79.4,60.2,39.3,27.0,20.9,15.0,51,25,9,30.24,30.06,10,2,16,0.00
2013-10-18,80.7,61.6,41.5,29.0,25.1,21.0,49,28,13,30.19,30.08,10,2,13,0.00
2013-10-19,85.2,63.5,41.8,30.0,22.0,13.0,54,25,7,30.21,30.06,9,2,14,0.00
2013-10-20,83.4,62.3,40.4,25.0,19.9,15.0,48,23,8,30.14,29.99,14,2,18,0.00
2013-10-21,84.2,63.2,41.9,27.0,20.1,15.0,47,23,8,30.16,30.07,11,2,15,0.00
2013-10-22,88.9,69.2,44.0,30.0,21.3,9.0,42,20,5,30.20,30.04,14,4,19,0.00
2013-10-23,91.0,73.8,58.7,33.0,28.4,23.0,32,20,9,30.05,29.92,9,2,14,0.00
2013-10-24,90.0,71.6,51.7,34.0,29.3,26.0,42,23,11,30.11,29.96,11,2,16,0.00
2013-10-25,84.8,66.7,47.9,36.0,29.4,26.0,48,28,12,30.20,30.10,10,2,14,0.00
2013-10-26,86.2,66.2,43.7,35.0,29.5,25.0,57,29,11,30.26,30.11,7,2,10,0.00
2013-10-27,88.6,70.0,51.3,38.0,29.3,23.0,50,25,10,30.14,29.89,11,2,15,0.00
2013-10-28,81.8,67.1,50.5,39.0,32.5,27.0,55,30,14,30.05,29.94,15,3,23,0.00
2013-10-29,82.3,67.1,53.2,42.0,35.9,29.0,56,34,15,30.06,29.93,17,5,27,0.00
2013-10-30,68.6,56.4,44.9,41.0,34.8,27.0,72,47,27,30.22,30.02,14,4,21,0.00
2013-10-31,73.4,55.2,36.4,31.0,26.3,13.0,66,38,10,30.32,30.17,9,2,13,0.00
2013-11-1,78.4,57.6,37.1,29.0,25.1,22.0,56,32,14,30.35,30.18,9,2,11,0.00
2013-11-2,86.0,68.1,46.0,51.0,22.2,13.0,69,22,7,30.23,29.99,12,3,29,0.03
2013-11-3,80.3,66.4,54.0,55.0,48.3,41.0,93,57,26,30.09,29.85,13,2,18,0.05
2013-11-4,80.2,64.7,47.1,53.0,45.4,42.0,82,54,26,29.98,29.83,14,4,20,0.00
2013-11-5,70.9,60.3,49.9,47.0,42.8,37.0,79,55,29,30.27,29.96,11,3,15,0.00
2013-11-6,76.2,61.1,41.2,40.0,25.0,3.0,86,35,7,30.42,30.28,14,4,20,0.00
2013-11-7,80.6,70.6,61.0,29.0,19.0,3.0,28,14,9,30.34,30.15,18,9,26,0.00
2013-11-8,81.8,65.1,47.9,37.0,33.0,28.0,54,32,18,30.21,30.07,10,2,13,0.00
2013-11-9,81.6,63.6,45.6,39.0,35.8,31.0,62,38,20,30.26,30.14,7,1,12,0.00
2013-11-10,85.3,65.1,45.6,39.0,35.8,33.0,64,38,17,30.28,30.12,10,2,13,0.00
2013-11-11,87.2,66.6,46.5,43.0,36.8,33.0,61,37,17,30.23,30.09,10,2,17,0.00
2013-11-12,84.0,74.1,57.3,45.0,38.5,30.0,46,29,19,30.28,30.18,22,11,34,0.00
2013-11-13,77.4,68.6,61.7,44.0,42.7,41.0,49,40,30,30.26,30.10,21,10,34,0.00
2013-11-14,79.9,64.7,49.4,45.0,40.7,34.0,70,44,22,30.16,29.99,7,1,12,0.00
2013-11-15,75.7,64.0,50.1,51.0,43.9,34.0,61,49,34,29.99,29.79,18,4,23,0.00
2013-11-16,76.2,65.5,52.8,52.0,45.2,36.0,79,51,23,30.03,29.84,13,4,21,0.00
2013-11-17,74.4,62.9,50.6,48.0,45.0,43.0,79,55,34,30.19,30.03,8,1,10,0.00
2013-11-18,79.0,63.7,48.8,47.0,44.1,41.0,77,52,29,30.23,30.09,11,2,18,0.00
2013-11-19,78.1,61.0,43.9,45.0,39.7,33.0,79,50,20,30.16,29.99,12,2,15,0.00
2013-11-20,75.3,61.3,46.9,43.0,39.6,37.0,69,48,27,30.06,29.95,13,3,20,0.00
2013-11-21,73.7,63.5,50.5,53.0,43.3,38.0,78,50,30,30.08,29.98,8,1,13,0.00
2013-11-22,65.6,56.5,48.2,57.0,51.0,47.0,94,83,55,30.13,29.92,16,3,17,0.41
2013-11-23,52.7,49.4,47.5,49.0,46.2,44.0,96,89,74,30.26,30.11,15,4,22,1.12
2013-11-24,59.7,50.5,44.7,45.0,40.7,-99.9,87,72,51,30.32,30.23,15,-8,20,0.00
2013-11-25,59.4,47.9,37.5,44.0,40.1,36.0,94,77,47,30.41,30.29,7,1,10,0.00
2013-11-26,65.0,53.9,38.8,40.0,33.5,27.0,93,52,28,30.45,30.32,18,8,28,0.01
2013-11-27,61.9,56.1,46.5,30.0,25.7,24.0,53,32,25,30.33,30.15,21,10,28,0.00
2013-11-28,71.7,55.5,42.4,41.0,31.9,-99.9,77,45,24,30.26,30.14,8,-9,9,0.00
2013-11-29,73.7,56.3,39.9,45.0,41.6,37.0,90,63,31,30.36,30.22,8,1,12,0.00
2013-11-30,70.0,56.3,44.4,48.0,45.1,42.0,91,69,42,30.34,30.21,4,1,7,0.00
2013-12-1,70.8,56.5,47.0,49.0,46.0,43.0,90,71,39,30.37,30.26,9,1,10,0.00
2013-12-2,70.2,53.6,39.7,45.0,39.7,29.0,93,65,22,30.32,30.11,5,1,8,0.00
2013-12-3,72.8,55.8,40.7,43.0,37.0,21.0,87,56,15,30.12,29.90,9,2,11,0.00
2013-12-4,69.5,58.2,47.2,48.0,42.2,35.0,91,58,30,30.06,29.91,19,5,28,0.04
2013-12-5,51.0,45.7,35.3,46.0,37.8,31.0,93,76,52,30.30,30.02,10,2,14,0.24
2013-12-6,53.0,40.7,29.8,32.0,28.6,22.0,92,67,31,30.41,30.30,8,2,10,0.00
2013-12-7,57.5,42.8,28.3,33.0,27.8,21.0,92,62,25,30.32,30.19,10,2,13,0.00
2013-12-8,58.0,47.3,37.0,41.0,37.3,31.0,83,69,48,30.32,30.20,8,2,13,0.00
2013-12-9,51.9,42.8,31.3,34.0,26.2,20.0,84,54,30,30.50,30.27,9,2,11,0.00
2013-12-10,62.2,44.5,28.3,30.0,25.3,17.0,87,54,18,30.50,30.32,6,2,12,0.00
2013-12-11,72.5,54.5,33.4,41.0,34.2,29.0,84,51,31,30.41,30.29,15,3,20,0.00
2013-12-12,72.1,58.9,44.6,44.0,36.6,32.0,73,45,32,30.33,30.15,16,3,21,0.00
2013-12-13,61.7,47.7,34.6,37.0,33.8,31.0,87,62,35,30.37,30.25,5,1,9,0.00
2013-12-14,64.3,47.3,31.8,36.0,30.8,27.0,90,58,25,30.50,30.38,8,2,10,0.00
2013-12-15,67.0,52.0,35.3,33.0,29.3,24.0,78,46,21,30.48,30.34,14,3,18,0.00
2013-12-16,76.0,53.2,33.8,35.0,31.2,26.0,81,50,16,30.43,30.31,5,1,8,0.00
2013-12-17,81.4,57.3,35.6,37.0,30.0,23.0,81,44,12,30.41,30.25,7,1,11,0.00
2013-12-18,77.9,58.6,42.6,37.0,31.2,23.0,71,41,13,30.25,30.01,3,0,5,0.00
2013-12-19,70.3,55.5,39.5,34.0,30.1,23.0,72,43,17,30.03,29.86,16,4,24,0.00
2013-12-20,55.3,48.1,44.6,45.0,40.5,33.0,92,76,54,30.03,29.79,19,3,24,0.36
2013-12-21,53.2,47.8,42.5,44.0,41.2,36.0,94,79,54,30.25,30.02,17,3,20,0.06
2013-12-22,58.5,46.2,35.1,43.0,38.2,34.0,95,76,47,30.48,30.26,8,1,9,0.00
2013-12-23,65.5,49.9,32.0,40.0,30.1,24.0,94,55,21,30.55,30.43,15,4,22,0.00
2013-12-24,68.0,51.2,36.8,38.0,30.5,26.0,82,49,21,30.42,30.28,8,2,9,0.00
2013-12-25,68.0,51.5,31.9,38.0,30.6,24.0,92,52,24,30.45,30.33,19,5,26,0.00
2013-12-26,64.9,55.7,42.3,27.0,23.6,18.0,53,30,21,30.39,30.26,19,7,29,0.00
2013-12-27,66.5,53.2,36.5,27.0,22.5,16.0,67,34,17,30.40,30.28,19,6,32,0.00
2013-12-28,65.4,50.0,33.4,34.0,27.0,20.0,72,44,21,30.33,30.13,6,1,8,0.00
2013-12-29,65.1,49.7,35.0,34.0,31.8,28.0,83,54,26,30.34,30.14,10,2,15,0.00
2013-12-30,65.8,47.5,32.1,35.0,30.2,26.0,88,57,23,30.47,30.34,8,1,11,0.00
2013-12-31,71.0,49.6,31.3,32.0,27.5,21.0,85,50,15,30.45,30.27,4,1,9,0.00
2014-1-1,69.3,49.3,32.3,32.0,29.4,25.0,82,52,19,30.36,30.25,6,1,8,0.00
2014-1-2,73.9,55.9,35.3,32.0,27.8,24.0,81,42,16,30.37,30.23,13,4,17,0.00